Wind_Speed
11 11 10 9 9 10 8 8 7 7 7 9 9 8 10 11 10 10 10 9 8 6 6 5 5 4 3 1 2 4 6 8 10 10 11 15 18 16 17 13 12 13 12
11 11 11 10 11 10 10 10 9 10 12 12 11 9 9 10 11 11 10 8 6 5 6 5 4 4 3 5 6 8 9 10 10 9 9 12 16 16 18 17 14 15 13
11 11 12 12 14 12 11 11 11 11 14 14 12 12 12 12 12 11 12 11 10 9 8 7 5 6 7 8 8 12 14 15 16 14 16 16 17 16 16 17 17 18 18
17 15 14 15 16 18 15 15 15 16 16 17 17 17 16 15 15 14 13 11 10 10 9 9 8 8 11 12 13 13 17 19 21 20 19 20 20 22 20 16 18 18 23
15 18 19 15 21 23 22 19 19 19 20 19 19 19 19 18 17 15 14 14 14 13 13 12 12 13 16 18 19 19 19 23 24 25 24 22 21 24 29 27 22 19 21
21 23 27 26 33 27 21 25 23 23 23 23 24 24 22 20 17 15 15 15 14 13 13 14 14 15 20 23 23 22 23 24 24 28 30 26 25 25 31 33 33 26 24
26 29 29 30 35 21 16 15 28 27 30 30 29 29 28 26 22 18 19 18 18 18 18 19 20 19 22 27 29 26 29 27 31 34 34 32 33 28 30 30 36 30 33
32 34 34 33 32 26 25 25 21 24 30 30 38 43 41 29 23 22 24 27 25 24 24 26 26 26 27 34 37 31 27 29 34 33 36 39 34 32 31 30 31 33 37
38 38 36 34 35 36 33 33 25 26 27 30 32 35 30 13 20 25 30 32 33 26 29 30 33 35 33 35 36 32 31 30 33 34 36 40 39 39 38 38 38 42 45
35 36 43 43 38 39 38 33 32 35 33 31 29 23 25 19 27 32 36 36 34 35 37 38 37 34 34 33 30 27 25 29 32 34 34 35 39 44 46 46 47 48 50
29 30 32 36 40 38 35 37 38 32 32 30 31 30 29 29 32 36 37 40 39 40 39 35 34 27 25 28 31 27 29 29 31 35 35 35 39 44 48 50 49 52 52
36 41 42 36 35 36 34 32 33 36 38 42 40 38 38 39 41 44 45 46 46 40 33 31 25 27 26 30 31 32 31 27 29 31 31 29 32 38 44 48 50 51 44
52 58 59 37 35 37 41 38 39 39 38 39 39 38 38 39 40 40 42 40 39 35 32 29 27 28 30 32 30 26 29 29 30 30 34 38 39 40 44 44 45 44 36
56 52 50 57 60 49 49 51 44 42 42 39 40 39 41 39 38 40 39 38 35 35 33 32 31 31 31 31 30 30 32 31 33 34 37 38 42 42 46 47 42 44 37
61 57 57 55 55 54 53 51 48 48 48 46 44 43 42 43 43 39 39 40 39 37 37 37 36 35 35 35 35 35 36 36 36 38 41 41 44 41 44 47 43 39 37
64 63 60 57 55 56 56 53 50 50 50 50 48 48 46 44 44 43 41 40 41 42 41 40 42 40 40 40 40 40 41 41 41 41 41 42 42 41 40 43 37 33 33
70 69 66 61 59 58 58 58 59 58 55 52 51 51 49 48 47 46 45 43 42 43 43 42 42 42 42 42 44 44 44 46 46 44 43 42 40 38 37 35 33 32 26
68 69 66 65 62 60 60 60 57 55 56 53 52 51 51 49 47 44 45 47 47 47 45 45 45 46 45 45 45 46 47 48 47 45 44 42 41 38 33 31 26 27 26
60 48 63 68 72 64 61 59 58 54 50 49 47 50 52 50 48 46 45 47 47 46 46 46 44 44 44 44 45 44 45 46 46 46 46 44 42 40 35 32 28 21 17
52 43 58 45 63 65 63 60 57 55 51 47 48 49 49 50 49 46 43 45 47 44 44 44 44 42 44 44 46 45 43 44 45 45 47 47 44 42 39 38 35 33 34
31 41 70 35 40 48 49 57 57 55 52 47 45 49 49 48 47 46 45 43 45 46 45 45 45 44 43 43 43 44 46 46 48 48 49 49 49 45 42 40 41 36 34
5 20 25 39 46 43 42 48 53 56 53 50 45 46 50 51 50 48 46 44 44 48 46 44 44 45 45 45 46 46 46 46 47 48 50 51 50 47 44 41 38 40 34
17 22 25 28 32 40 45 48 51 55 54 50 49 46 51 50 51 51 51 46 46 47 48 43 44 47 48 47 47 46 45 46 49 50 49 48 48 45 42 40 38 41 40
26 26 25 25 23 28 36 42 47 48 49 49 46 43 44 48 51 51 50 50 46 47 48 47 45 46 46 45 44 45 46 47 46 44 45 45 44 43 40 39 39 40 36
26 24 22 21 24 25 22 26 32 39 46 46 44 39 39 40 42 41 43 46 46 46 48 49 47 46 46 44 43 46 46 44 43 42 42 40 39 37 36 38 38 40 41
18 17 17 14 16 20 25 29 31 30 29 32 36 35 35 37 38 35 33 36 36 41 42 44 46 45 42 42 43 43 42 41 41 40 40 38 38 37 40 41 40 39 45
Wind_Direction
234 227 220 233 248 256 253 263 254 211 185 165 160 154 153 175 190 211 222 233 249 243 239 244 270 281 293 108 1 344 329 327 347 354 342 333 329 311 299 300 295 303 297
232 240 248 244 243 251 246 235 228 212 196 188 175 167 161 162 167 178 188 204 210 214 233 238 248 240 266 314 314 310 316 309 314 328 340 345 336 326 300 288 282 288 294
215 240 251 249 247 250 252 230 223 220 211 200 195 192 192 188 189 189 185 189 187 193 206 224 238 235 252 260 274 289 296 304 311 322 334 333 325 332 317 296 283 283 286
237 243 256 270 266 254 247 238 229 224 219 215 205 199 194 196 194 198 200 204 208 211 220 227 228 245 256 262 270 277 293 302 306 313 315 316 324 321 315 316 290 281 289
244 255 256 261 266 262 245 234 233 229 229 225 216 210 198 193 195 203 205 209 216 219 228 239 248 253 263 273 282 290 293 295 298 300 298 302 309 311 309 307 302 286 281
263 260 258 254 255 223 252 255 249 239 234 226 212 205 203 209 217 224 228 232 238 247 251 260 266 277 282 282 282 286 289 287 292 300 297 300 293 291 294 289 289 284 277
272 264 265 263 259 302 298 265 255 246 235 228 226 225 214 211 217 233 249 256 257 261 266 270 276 274 277 282 281 281 279 285 287 286 293 293 295 291 275 282 283 275 277
267 267 265 264 273 280 288 286 271 259 258 247 247 241 223 213 222 235 247 252 258 260 274 279 281 283 287 282 275 284 280 282 283 286 286 284 288 285 287 283 279 279 272
260 263 260 270 276 277 278 277 271 265 263 269 275 276 276 183 228 247 252 259 272 285 277 278 281 285 278 272 274 275 273 277 277 276 280 285 280 278 278 278 277 272 274
258 256 260 266 269 275 274 273 279 271 266 268 280 292 256 231 246 253 262 269 275 278 279 282 279 272 265 265 265 270 274 273 278 281 280 284 282 279 279 276 274 278 275
261 262 260 263 267 268 269 271 270 270 274 266 268 266 266 267 267 268 272 273 273 273 279 281 277 275 251 256 268 275 274 274 282 286 286 292 291 287 284 284 286 280 278
245 262 266 255 261 264 268 270 267 265 262 260 262 263 264 265 262 264 267 269 273 273 274 269 268 265 262 262 266 270 272 275 277 281 287 285 292 294 291 291 292 288 282
279 277 288 234 245 258 265 263 262 261 260 262 265 266 264 262 263 263 265 265 266 264 258 254 258 265 265 262 261 266 270 275 279 282 284 288 290 300 303 300 289 288 275
275 270 264 272 275 260 267 271 265 264 263 261 261 264 267 265 263 260 261 263 262 261 254 250 251 255 258 259 264 267 268 272 275 277 279 285 293 294 302 302 288 282 268
274 271 267 261 263 266 265 264 266 267 267 264 262 259 259 264 267 263 259 260 259 258 256 254 252 254 256 257 260 265 268 272 276 278 282 285 291 299 306 304 291 275 259
271 270 270 269 267 265 265 267 267 266 265 266 265 263 261 257 257 260 259 255 256 255 252 251 251 249 251 255 259 264 269 271 274 277 283 287 290 300 304 305 293 271 262
269 268 268 267 266 265 266 267 266 266 266 264 264 264 262 259 259 258 255 251 248 250 251 252 252 251 252 254 257 260 263 266 271 277 279 283 288 297 304 307 296 273 260
264 266 267 267 265 264 264 264 268 269 265 265 264 264 265 262 260 259 257 253 248 248 250 251 253 254 253 253 256 259 263 266 269 271 275 280 285 288 290 294 302 291 270
262 252 266 258 263 259 258 259 262 266 269 266 262 260 260 262 262 260 259 256 255 252 252 251 253 255 257 255 254 255 260 265 267 268 272 276 279 282 278 283 290 287 299
258 256 249 251 255 255 256 255 255 260 264 270 266 261 259 259 260 261 260 257 256 255 255 254 254 255 257 257 257 256 263 267 265 265 266 270 273 274 277 274 276 279 280
253 261 238 241 243 248 248 251 255 257 259 263 266 262 261 258 256 256 258 256 257 256 253 254 255 254 255 257 257 262 262 265 263 262 264 267 270 271 271 272 269 273 270
257 259 269 254 254 252 251 251 253 255 254 257 262 261 257 256 257 256 256 257 256 257 257 258 260 262 264 262 260 260 260 257 258 258 259 263 269 272 272 272 271 269 266
295 281 279 269 260 253 249 248 250 252 250 253 258 260 259 256 256 258 259 255 255 258 259 255 254 256 258 259 261 259 257 253 256 257 259 265 267 268 267 269 266 274 260
310 298 274 278 279 273 264 256 252 250 252 254 254 257 262 262 256 258 261 263 260 260 262 261 252 255 257 257 257 255 254 254 257 259 261 261 263 266 268 269 268 264 270
316 317 314 278 277 275 280 271 264 260 258 260 262 263 261 263 264 262 263 262 263 261 258 257 255 253 257 257 256 256 256 256 256 258 257 259 262 266 269 270 272 276 275
350 334 319 304 283 274 273 273 271 268 270 270 264 266 267 265 261 259 257 259 260 260 256 257 258 253 251 255 254 253 252 253 252 254 256 259 264 267 269 267 270 275 277
Height
5906 5906 5906 5907 5908 5908 5910 5911 5912 5912 5912 5913 5915 5914 5914 5915 5917 5920 5923 5925 5927 5928 5929 5930 5931 5931 5931 5931 5931 5932 5931 5930 5932 5932 5932 5930 5929 5929 5927 5927 5926 5926 5927
5905 5905 5904 5903 5904 5905 5906 5907 5908 5909 5910 5912 5912 5912 5912 5914 5915 5916 5918 5921 5924 5925 5926 5927 5928 5929 5930 5930 5929 5928 5927 5927 5927 5927 5927 5927 5925 5924 5923 5924 5924 5922 5922
5900 5902 5902 5901 5901 5900 5902 5903 5903 5904 5905 5906 5908 5909 5912 5913 5913 5914 5914 5916 5918 5920 5922 5924 5925 5927 5928 5927 5926 5924 5923 5923 5923 5924 5925 5926 5923 5922 5921 5920 5919 5916 5917
5893 5896 5899 5899 5900 5899 5899 5901 5901 5901 5902 5904 5905 5906 5907 5908 5909 5910 5912 5914 5914 5916 5918 5919 5921 5922 5922 5921 5921 5921 5920 5918 5918 5918 5919 5920 5919 5917 5915 5917 5916 5915 5912
5886 5892 5892 5893 5896 5895 5894 5896 5899 5899 5899 5900 5901 5901 5902 5903 5903 5905 5906 5908 5910 5911 5912 5913 5914 5915 5915 5914 5914 5913 5913 5912 5910 5909 5910 5910 5912 5912 5908 5908 5908 5911 5909
5879 5884 5883 5885 5886 5878 5887 5892 5894 5894 5894 5895 5895 5894 5896 5898 5899 5900 5900 5900 5902 5905 5907 5907 5907 5908 5908 5907 5907 5907 5906 5904 5904 5902 5900 5904 5903 5902 5901 5899 5898 5900 5902
5874 5873 5873 5875 5879 5878 5882 5882 5887 5888 5888 5888 5888 5887 5885 5885 5887 5891 5893 5894 5895 5896 5899 5901 5902 5902 5900 5898 5897 5899 5899 5898 5896 5895 5893 5889 5893 5893 5891 5891 5888 5889 5890
5866 5863 5865 5865 5868 5870 5871 5875 5878 5878 5879 5881 5884 5876 5845 5867 5877 5880 5884 5884 5884 5885 5888 5890 5892 5893 5893 5891 5886 5888 5889 5889 5887 5884 5884 5882 5879 5879 5880 5880 5879 5877 5882
5860 5860 5858 5858 5857 5860 5863 5864 5866 5870 5869 5868 5869 5858 5855 5841 5869 5871 5872 5871 5871 5875 5879 5880 5880 5880 5880 5877 5877 5877 5878 5878 5877 5876 5875 5872 5869 5867 5869 5869 5868 5865 5864
5845 5845 5845 5847 5850 5853 5855 5853 5854 5857 5856 5855 5854 5851 5854 5853 5862 5862 5863 5865 5867 5867 5867 5868 5867 5868 5866 5864 5865 5866 5868 5867 5866 5865 5864 5862 5859 5856 5855 5856 5856 5853 5851
5826 5831 5833 5835 5836 5839 5840 5842 5843 5842 5842 5843 5845 5847 5848 5849 5851 5852 5853 5855 5855 5855 5857 5856 5855 5851 5853 5855 5854 5855 5858 5856 5855 5854 5854 5852 5849 5844 5841 5841 5842 5840 5839
5809 5815 5816 5816 5821 5823 5826 5828 5831 5834 5835 5835 5834 5835 5837 5838 5839 5840 5840 5840 5841 5843 5846 5845 5846 5844 5845 5845 5846 5847 5846 5846 5846 5844 5843 5842 5839 5835 5832 5828 5826 5824 5825
5800 5806 5803 5795 5801 5808 5814 5816 5818 5821 5824 5823 5823 5823 5824 5825 5826 5827 5827 5826 5828 5831 5833 5834 5835 5834 5835 5836 5837 5838 5837 5837 5835 5835 5833 5830 5827 5825 5819 5813 5809 5809 5811
5787 5791 5792 5790 5792 5796 5797 5803 5805 5808 5808 5810 5811 5810 5810 5812 5814 5814 5814 5815 5817 5819 5820 5821 5823 5824 5826 5826 5826 5826 5826 5826 5825 5825 5823 5820 5815 5813 5807 5800 5794 5794 5796
5766 5769 5773 5774 5775 5774 5779 5784 5787 5791 5792 5794 5795 5797 5798 5798 5798 5800 5800 5801 5803 5805 5807 5809 5811 5812 5814 5815 5816 5816 5814 5813 5812 5811 5810 5808 5804 5799 5794 5787 5781 5777 5779
5748 5747 5749 5753 5755 5757 5759 5763 5768 5773 5775 5777 5778 5779 5782 5784 5784 5786 5788 5787 5789 5791 5793 5796 5798 5800 5801 5801 5802 5802 5801 5800 5799 5797 5796 5795 5791 5788 5784 5778 5772 5768 5768
5724 5725 5726 5731 5735 5738 5740 5745 5749 5753 5757 5760 5760 5763 5764 5768 5769 5771 5774 5776 5777 5778 5779 5781 5783 5785 5787 5789 5790 5789 5789 5788 5787 5786 5784 5783 5781 5777 5774 5771 5765 5761 5759
5703 5705 5707 5708 5711 5717 5722 5725 5729 5732 5735 5740 5743 5745 5747 5750 5753 5757 5759 5760 5762 5764 5766 5767 5767 5768 5771 5774 5775 5775 5775 5774 5774 5773 5772 5771 5770 5769 5767 5765 5760 5755 5752
5670 5685 5684 5685 5690 5695 5699 5706 5709 5712 5716 5720 5725 5727 5730 5732 5736 5740 5743 5743 5744 5748 5750 5751 5752 5753 5755 5757 5758 5760 5760 5760 5759 5759 5760 5759 5758 5758 5758 5755 5754 5751 5749
5645 5657 5663 5652 5657 5670 5680 5687 5690 5693 5697 5701 5705 5709 5712 5716 5720 5723 5726 5727 5728 5731 5733 5735 5737 5739 5741 5742 5743 5744 5745 5745 5745 5745 5745 5746 5746 5745 5746 5746 5746 5744 5743
5632 5636 5641 5637 5644 5651 5658 5665 5672 5675 5680 5685 5687 5690 5693 5698 5702 5706 5708 5711 5713 5716 5718 5719 5720 5723 5725 5727 5727 5727 5729 5730 5731 5731 5732 5732 5731 5733 5733 5734 5736 5735 5735
5629 5637 5633 5634 5638 5639 5643 5649 5654 5659 5663 5667 5670 5671 5674 5678 5681 5686 5691 5694 5697 5697 5701 5704 5705 5706 5708 5709 5711 5713 5713 5714 5716 5717 5717 5717 5718 5719 5721 5722 5723 5723 5723
5629 5630 5628 5627 5626 5628 5630 5633 5635 5642 5647 5651 5655 5657 5658 5662 5665 5667 5672 5679 5681 5681 5683 5688 5690 5691 5692 5693 5694 5695 5697 5699 5700 5700 5701 5703 5704 5705 5707 5709 5709 5708 5711
5621 5620 5619 5619 5617 5617 5619 5622 5625 5628 5632 5638 5642 5644 5645 5645 5650 5653 5656 5658 5665 5667 5666 5668 5672 5673 5675 5676 5678 5679 5680 5682 5684 5686 5688 5689 5690 5691 5693 5695 5696 5697 5698
5615 5613 5610 5610 5610 5610 5611 5612 5614 5618 5621 5625 5626 5631 5633 5633 5635 5639 5641 5643 5645 5648 5649 5650 5654 5657 5658 5660 5662 5664 5666 5668 5670 5673 5674 5676 5677 5678 5680 5681 5682 5683 5683
5613 5610 5607 5605 5604 5604 5605 5606 5606 5607 5608 5611 5614 5617 5619 5622 5622 5624 5626 5627 5629 5630 5633 5635 5637 5641 5642 5644 5646 5649 5652 5655 5658 5660 5662 5664 5666 5667 5667 5668 5670 5669 5670